| time (UTC) | temp C | wind direction | speed KPH | gust KPH | rain 1hr cm | rain 24hr cm | rain mn cm | humidity % | barometer mb |
| 20260506185414 | 20 | 359 | 3.2 | 12.9 | 0.00 | 0.00 | 0.00 | 70 | 1021.7 |
| 20260506184434 | 20 | 359 | 3.2 | 9.7 | 0.00 | 0.00 | 0.00 | 69 | 1021.6 |
| 20260506183414 | 20 | 359 | 1.6 | 8.0 | 0.00 | 0.00 | 0.00 | 70 | 1021.7 |
| 20260506182435 | 19 | 359 | 1.6 | 4.8 | 0.00 | 0.00 | 0.00 | 71 | 1021.6 |
| 20260506181433 | 19 | 359 | 3.2 | 8.0 | 0.00 | 0.00 | 0.00 | 70 | 1021.7 |
| 20260506180436 | 19 | 359 | 3.2 | 8.0 | 0.00 | 0.00 | 0.00 | 71 | 1021.6 |
| 20260506175417 | 18 | 359 | 1.6 | 6.4 | 0.00 | 0.00 | 0.00 | 73 | 1021.6 |
| 20260506174428 | 18 | 359 | 1.6 | 9.7 | 0.00 | 0.00 | 0.00 | 73 | 1021.7 |
| 20260506173411 | 18 | 359 | 1.6 | 6.4 | 0.00 | 0.00 | 0.00 | 74 | 1021.7 |
| 20260506172432 | 17 | 359 | 4.8 | 8.0 | 0.00 | 0.00 | 0.00 | 74 | 1021.8 |
| 20260506171413 | 17 | 359 | 1.6 | 4.8 | 0.00 | 0.00 | 0.00 | 77 | 1021.8 |
| 20260506170434 | 16 | 359 | 1.6 | 4.8 | 0.00 | 0.00 | 0.00 | 77 | 1021.9 |
| 20260506165417 | 16 | 359 | 1.6 | 6.4 | 0.00 | 0.00 | 0.00 | 78 | 1021.8 |
| 20260506164418 | 16 | 359 | 1.6 | 4.8 | 0.00 | 0.00 | 0.00 | 79 | 1021.8 |
| 20260506163414 | 15 | 359 | 1.6 | 3.2 | 0.00 | 0.00 | 0.00 | 81 | 1021.9 |
| 20260506162430 | 15 | 359 | 1.6 | 4.8 | 0.00 | 0.00 | 0.00 | 82 | 1022.0 |
| 20260506161413 | 15 | 359 | 1.6 | 4.8 | 0.00 | 0.00 | 0.00 | 83 | 1021.8 |
| 20260506160413 | 15 | 359 | 1.6 | 4.8 | 0.00 | 0.00 | 0.00 | 84 | 1021.8 |
| 20260506155424 | 14 | 359 | 0.0 | 3.2 | 0.00 | 0.00 | 0.00 | 85 | 1021.9 |
| 20260506154417 | 13 | 359 | 1.6 | 4.8 | 0.00 | 0.00 | 0.00 | 85 | 1021.9 |
| 20260506153417 | 13 | 359 | 1.6 | 4.8 | 0.00 | 0.00 | 0.00 | 85 | 1021.8 |
| 20260506152419 | 13 | 359 | 1.6 | 3.2 | 0.00 | 0.00 | 0.00 | 86 | 1021.7 |
| 20260506151418 | 13 | 359 | 0.0 | 3.2 | 0.00 | 0.00 | 0.00 | 87 | 1021.8 |
| 20260506150414 | 13 | 359 | 0.0 | 1.6 | 0.00 | 0.00 | 0.00 | 88 | 1021.8 |
| 20260506145413 | 13 | 359 | 1.6 | 4.8 | 0.00 | 0.00 | 0.00 | 89 | 1021.7 |
| 20260506144412 | 13 | 359 | 0.0 | 0.0 | 0.00 | 0.00 | 0.00 | 89 | 1021.7 |
| 20260506143429 | 12 | 359 | 0.0 | 1.6 | 0.00 | 0.00 | 0.00 | 90 | 1021.6 |
| 20260506142428 | 12 | 359 | 0.0 | 1.6 | 0.00 | 0.00 | 0.00 | 90 | 1021.5 |
| 20260506141422 | 12 | 359 | 0.0 | 0.0 | 0.00 | 0.00 | 0.00 | 90 | 1021.5 |
| 20260506140423 | 12 | 359 | 0.0 | 0.0 | 0.00 | 0.00 | 0.00 | 90 | 1021.2 |
| 20260506135425 | 12 | 359 | 0.0 | 0.0 | 0.00 | 0.00 | 0.00 | 90 | 1021.2 |
| 20260506134419 | 12 | 359 | 0.0 | 0.0 | 0.00 | 0.00 | 0.00 | 89 | 1021.1 |
| 20260506133418 | 12 | 359 | 0.0 | 0.0 | 0.00 | 0.00 | 0.00 | 89 | 1021.1 |
| 20260506132413 | 12 | 359 | 0.0 | 0.0 | 0.00 | 0.00 | 0.00 | 89 | 1021.0 |
| 20260506131411 | 12 | 359 | 0.0 | 0.0 | 0.00 | 0.00 | 0.00 | 88 | 1021.0 |
| 20260506130412 | 12 | 359 | 0.0 | 0.0 | 0.00 | 0.00 | 0.00 | 88 | 1020.8 |
| 20260506125412 | 12 | 359 | 0.0 | 0.0 | 0.00 | 0.00 | 0.00 | 88 | 1020.8 |
| 20260506124415 | 12 | 359 | 0.0 | 0.0 | 0.00 | 0.00 | 0.00 | 88 | 1020.8 |
| 20260506123415 | 12 | 359 | 0.0 | 0.0 | 0.00 | 0.00 | 0.00 | 87 | 1020.8 |
| 20260506122425 | 12 | 359 | 0.0 | 0.0 | 0.00 | 0.00 | 0.00 | 87 | 1020.8 |
| 20260506121424 | 12 | 359 | 0.0 | 1.6 | 0.00 | 0.00 | 0.00 | 87 | 1020.8 |
| 20260506120419 | 12 | 359 | 0.0 | 1.6 | 0.00 | 0.00 | 0.00 | 87 | 1020.7 |
| 20260506115419 | 12 | 359 | 0.0 | 1.6 | 0.00 | 0.00 | 0.00 | 87 | 1020.7 |
| 20260506114418 | 12 | 359 | 0.0 | 0.0 | 0.00 | 0.00 | 0.00 | 87 | 1020.5 |
| 20260506113414 | 12 | 359 | 0.0 | 0.0 | 0.00 | 0.00 | 0.00 | 87 | 1020.5 |
| 20260506112427 | 12 | 359 | 0.0 | 0.0 | 0.00 | 0.00 | 0.00 | 87 | 1020.4 |
| 20260506111420 | 12 | 359 | 0.0 | 0.0 | 0.00 | 0.00 | 0.00 | 87 | 1020.3 |
| 20260506110420 | 12 | 359 | 0.0 | 0.0 | 0.00 | 0.00 | 0.00 | 87 | 1020.3 |
| 20260506105421 | 12 | 359 | 0.0 | 0.0 | 0.00 | 0.00 | 0.00 | 86 | 1020.2 |
| 20260506104417 | 12 | 359 | 0.0 | 0.0 | 0.00 | 0.00 | 0.00 | 86 | 1020.2 |
| 20260506103417 | 12 | 359 | 0.0 | 0.0 | 0.00 | 0.00 | 0.00 | 86 | 1020.1 |
| 20260506102418 | 12 | 359 | 0.0 | 1.6 | 0.00 | 0.00 | 0.00 | 86 | 1020.0 |
| 20260506101438 | 12 | 359 | 0.0 | 1.6 | 0.00 | 0.00 | 0.00 | 85 | 1019.9 |
| 20260506100418 | 12 | 359 | 0.0 | 1.6 | 0.00 | 0.00 | 0.00 | 85 | 1019.9 |
| 20260506095418 | 12 | 359 | 0.0 | 1.6 | 0.00 | 0.05 | 0.00 | 85 | 1020.1 |
| 20260506094411 | 12 | 359 | 0.0 | 1.6 | 0.00 | 0.05 | 0.00 | 85 | 1020.1 |
| 20260506093433 | 12 | 359 | 0.0 | 1.6 | 0.00 | 0.05 | 0.00 | 84 | 1020.1 |
| 20260506092434 | 12 | 359 | 0.0 | 3.2 | 0.00 | 0.05 | 0.00 | 84 | 1020.2 |
| 20260506091434 | 12 | 359 | 0.0 | 3.2 | 0.00 | 0.05 | 0.00 | 84 | 1020.1 |
| 20260506090425 | 12 | 359 | 0.0 | 1.6 | 0.00 | 0.05 | 0.00 | 84 | 1020.1 |
| 20260506085426 | 12 | 359 | 0.0 | 1.6 | 0.00 | 0.15 | 0.00 | 84 | 1020.2 |
| 20260506084428 | 12 | 359 | 0.0 | 3.2 | 0.00 | 0.15 | 0.00 | 84 | 1020.1 |
| 20260506083449 | 12 | 359 | 1.6 | 3.2 | 0.00 | 0.15 | 0.00 | 84 | 1020.1 |
| 20260506082423 | 12 | 359 | 1.6 | 3.2 | 0.00 | 0.15 | 0.00 | 84 | 1020.1 |
| 20260506081422 | 12 | 359 | 0.0 | 1.6 | 0.00 | 0.15 | 0.00 | 84 | 1020.2 |
| 20260506080421 | 12 | 359 | 0.0 | 3.2 | 0.00 | 0.15 | 0.00 | 84 | 1020.2 |
| 20260506073413 | 12 | 359 | 0.0 | 4.8 | 0.00 | 0.28 | 0.00 | 83 | 1019.9 |
| 20260506072416 | 12 | 359 | 0.0 | 3.2 | 0.00 | 0.28 | 0.00 | 83 | 1019.9 |
| 20260506071414 | 12 | 359 | 0.0 | 4.8 | 0.00 | 0.28 | 0.00 | 83 | 1019.8 |
| 20260506070438 | 12 | 359 | 1.6 | 8.0 | 0.00 | 0.28 | 0.00 | 83 | 1019.7 |
| 20260506062434 | 13 | 359 | 0.0 | 6.4 | 0.00 | 0.38 | 2.79 | 83 | 1019.3 |
| 20260506061430 | 13 | 359 | 0.0 | 3.2 | 0.00 | 0.38 | 2.79 | 84 | 1019.3 |
| 20260506060429 | 13 | 359 | 1.6 | 3.2 | 0.00 | 0.38 | 2.79 | 84 | 1019.2 |
| 20260506051416 | 13 | 359 | 0.0 | 3.2 | 0.00 | 0.51 | 2.79 | 87 | 1019.0 |
| 20260506044438 | 13 | 359 | 1.6 | 4.8 | 0.00 | 0.66 | 2.79 | 87 | 1018.7 |
| 20260506043413 | 13 | 359 | 0.0 | 8.0 | 0.00 | 0.66 | 2.79 | 87 | 1018.5 |
| 20260506042429 | 13 | 359 | 1.6 | 8.0 | 0.00 | 0.66 | 2.79 | 87 | 1018.5 |
| 20260506041455 | 13 | 359 | 0.0 | 4.8 | 0.00 | 0.66 | 2.79 | 86 | 1018.4 |
| 20260506040434 | 13 | 359 | 0.0 | 4.8 | 0.00 | 0.66 | 2.79 | 86 | 1018.3 |
| 20260506035431 | 13 | 359 | 0.0 | 3.2 | 0.00 | 0.71 | 2.79 | 85 | 1018.2 |
| 20260506034425 | 13 | 359 | 0.0 | 3.2 | 0.00 | 0.71 | 2.79 | 85 | 1018.1 |
| 20260506033424 | 13 | 359 | 0.0 | 3.2 | 0.00 | 0.71 | 2.79 | 85 | 1017.9 |
| 20260506032422 | 13 | 359 | 1.6 | 4.8 | 0.00 | 0.71 | 2.79 | 84 | 1017.6 |
| 20260506031415 | 13 | 359 | 1.6 | 4.8 | 0.00 | 0.71 | 2.79 | 84 | 1017.5 |
| 20260506030417 | 14 | 359 | 1.6 | 6.4 | 0.00 | 0.71 | 2.79 | 84 | 1017.4 |
| 20260506025414 | 14 | 359 | 3.2 | 8.0 | 0.00 | 0.74 | 2.79 | 83 | 1017.3 |
| 20260506024416 | 14 | 359 | 4.8 | 12.9 | 0.00 | 0.74 | 2.79 | 82 | 1017.3 |
| 20260506023413 | 15 | 359 | 3.2 | 9.7 | 0.00 | 0.74 | 2.79 | 82 | 1017.3 |
| 20260506022436 | 15 | 359 | 3.2 | 8.0 | 0.00 | 0.74 | 2.79 | 81 | 1017.3 |
| 20260506021430 | 15 | 359 | 1.6 | 6.4 | 0.00 | 0.74 | 2.79 | 80 | 1017.1 |
| 20260506020425 | 15 | 359 | 1.6 | 8.0 | 0.00 | 0.74 | 2.79 | 80 | 1016.9 |
| 20260506015421 | 15 | 359 | 1.6 | 9.7 | 0.00 | 0.74 | 2.79 | 79 | 1016.8 |
| 20260506014421 | 15 | 359 | 1.6 | 8.0 | 0.00 | 0.74 | 2.79 | 79 | 1016.7 |
| 20260506013421 | 15 | 359 | 3.2 | 6.4 | 0.00 | 0.74 | 2.79 | 79 | 1016.7 |
| 20260506012442 | 15 | 359 | 3.2 | 14.5 | 0.00 | 0.74 | 2.79 | 78 | 1016.7 |
| 20260506011419 | 16 | 359 | 4.8 | 12.9 | 0.00 | 0.74 | 2.79 | 78 | 1016.7 |
| 20260506010419 | 16 | 359 | 1.6 | 9.7 | 0.00 | 0.74 | 2.79 | 78 | 1016.7 |
| 20260506005417 | 16 | 359 | 1.6 | 9.7 | 0.00 | 0.74 | 2.79 | 77 | 1016.7 |
| 20260506004413 | 16 | 359 | 3.2 | 12.9 | 0.00 | 0.74 | 2.79 | 77 | 1016.6 |
| 20260506003413 | 16 | 359 | 3.2 | 12.9 | 0.00 | 0.74 | 2.79 | 77 | 1016.5 |
| 20260506002414 | 16 | 359 | 4.8 | 14.5 | 0.00 | 0.74 | 2.79 | 76 | 1016.5 |
| 20260506001430 | 16 | 359 | 1.6 | 9.7 | 0.00 | 0.74 | 2.79 | 77 | 1016.4 |
| 20260506000431 | 16 | 359 | 4.8 | 12.9 | 0.00 | 0.74 | 2.79 | 77 | 1016.3 |
| 20260505235431 | 16 | 359 | 3.2 | 8.0 | 0.00 | 0.74 | 2.79 | 78 | 1016.3 |
| 20260505234426 | 16 | 359 | 3.2 | 12.9 | 0.00 | 0.74 | 2.79 | 78 | 1016.4 |
| 20260505233426 | 16 | 359 | 4.8 | 16.1 | 0.00 | 0.74 | 2.79 | 79 | 1016.4 |
| 20260505232426 | 16 | 359 | 3.2 | 9.7 | 0.00 | 0.74 | 2.79 | 78 | 1016.5 |
| 20260505231420 | 16 | 359 | 4.8 | 12.9 | 0.00 | 0.74 | 2.79 | 78 | 1016.4 |
| 20260505230420 | 17 | 359 | 4.8 | 14.5 | 0.00 | 0.74 | 2.79 | 77 | 1016.4 |
| 20260505225419 | 17 | 359 | 0.0 | 9.7 | 0.00 | 0.74 | 2.79 | 77 | 1016.4 |
| 20260505224420 | 17 | 359 | 1.6 | 6.4 | 0.00 | 0.74 | 2.79 | 77 | 1016.4 |
| 20260505223420 | 17 | 359 | 4.8 | 9.7 | 0.00 | 0.74 | 2.79 | 75 | 1016.5 |
| 20260505222416 | 17 | 359 | 4.8 | 14.5 | 0.00 | 0.74 | 2.79 | 76 | 1016.5 |
| 20260505221436 | 17 | 359 | 4.8 | 8.0 | 0.00 | 0.74 | 2.79 | 76 | 1016.4 |
| 20260505220414 | 17 | 359 | 1.6 | 12.9 | 0.00 | 0.74 | 2.79 | 77 | 1016.5 |
| 20260505215429 | 17 | 359 | 3.2 | 14.5 | 0.00 | 0.74 | 2.79 | 77 | 1016.5 |
| 20260505214454 | 17 | 359 | 1.6 | 9.7 | 0.00 | 0.74 | 2.79 | 77 | 1016.6 |
| 20260505213428 | 17 | 359 | 4.8 | 12.9 | 0.00 | 0.74 | 2.79 | 78 | 1016.7 |
| 20260505212430 | 17 | 359 | 1.6 | 6.4 | 0.00 | 0.74 | 2.79 | 78 | 1016.7 |
| 20260505211420 | 17 | 359 | 3.2 | 9.7 | 0.00 | 0.74 | 2.79 | 78 | 1016.7 |
| 20260505210415 | 17 | 359 | 4.8 | 8.0 | 0.00 | 0.74 | 2.79 | 77 | 1016.7 |
| 20260505205414 | 16 | 359 | 4.8 | 8.0 | 0.00 | 0.74 | 2.79 | 78 | 1016.7 |
| 20260505204414 | 17 | 359 | 1.6 | 14.5 | 0.00 | 0.74 | 2.79 | 78 | 1016.8 |
| 20260505203426 | 16 | 359 | 3.2 | 12.9 | 0.00 | 0.74 | 2.79 | 78 | 1016.7 |
| 20260505202449 | 17 | 359 | 3.2 | 9.7 | 0.00 | 0.74 | 2.79 | 76 | 1016.7 |
| 20260505201428 | 16 | 359 | 3.2 | 6.4 | 0.00 | 0.74 | 2.79 | 76 | 1016.8 |
| 20260505200426 | 16 | 359 | 1.6 | 9.7 | 0.00 | 0.74 | 2.79 | 77 | 1016.9 |
| 20260505195423 | 16 | 359 | 0.0 | 4.8 | 0.00 | 0.74 | 2.79 | 77 | 1016.9 |
| 20260505194424 | 16 | 359 | 3.2 | 8.0 | 0.00 | 0.74 | 2.79 | 78 | 1016.9 |
| 20260505193417 | 16 | 359 | 1.6 | 8.0 | 0.00 | 0.74 | 2.79 | 77 | 1017.0 |
| 20260505192418 | 16 | 359 | 4.8 | 9.7 | 0.00 | 0.74 | 2.79 | 76 | 1017.1 |
| 20260505191418 | 16 | 359 | 3.2 | 8.0 | 0.00 | 0.74 | 2.79 | 77 | 1016.9 |
| 20260505190416 | 16 | 359 | 3.2 | 6.4 | 0.00 | 0.74 | 2.79 | 78 | 1016.9 |